Regional Weather Roundup
Issued by NWS

Home | Current Version | Previous Version | Graphics & Text | Print | Product List | Glossary On
Versions: 1 2 3 4 5 6 7 8 9 10 11 12 13 14 15 16 17 18 19 20 21 22 23 24 25 26 27 28 29 30 31 32 33 34 35 36 37 38 39 40 41 42 43 44 45 46 47 48 49 50
000
ASUS43 KDTX 221910
RWRMI
MICHIGAN HOURLY REGIONAL WEATHER ROUNDUP
NATIONAL WEATHER SERVICE DETROIT/PONTIAC MI
200 PM EST MON DEC 22 2014

NOTE: "FAIR" INDICATES FEW OR NO CLOUDS BELOW 12,000 FEET WITH NO
SIGNIFICANT WEATHER AND/OR OBSTRUCTION TO VISIBILITY.

MIZ047>049-052>055-059>063-066>070-074>076-081>083-222000-
SOUTHEAST LOWER MICHIGAN

CITY           SKY/WX    TMP DP  RH WIND       PRES   REMARKS
ADRIAN         CLOUDY    37  30  75 SE10      29.94F WCI  30
ALMA           CLOUDY    36  29  75 E8        29.95F WCI  29
ANN ARBOR      MOSUNNY   38  30  73 SE9       29.97F WCI  31
BAD AXE        PTSUNNY   34  29  82 E7        30.00F WCI  28
CARO           SUNNY     38  27  63 E6        29.97F WCI  34
DETROIT CITY   PTSUNNY   39  29  67 E12       30.00F WCI  32
DETROIT        CLOUDY    39  30  70 E9G16     29.98F WCI  33
FLINT          MOSUNNY   42  27  55 E13       29.96F
GROSSE ILE     MOSUNNY   39  32  75 E7        29.97F WCI  34
HILLSDALE      CLOUDY    37  31  78 E13       29.90F WCI  29
HOWELL         PTSUNNY   38  28  68 SE9       29.95S WCI  32

CITY           SKY/WX    TMP DP  RH WIND       PRES   REMARKS
JACKSON        CLOUDY    37  28  70 SE12      29.93F WCI  29
LAMBERTVILLE   CLOUDY    36  30  80 E9        29.95F WCI  29
LANSING        CLOUDY    38  28  67 E12       29.93F WCI  30
LAPEER         FAIR      37  27  67 SE6       29.98F WCI  32
MASON          CLOUDY    37  28  71 SE9       29.92F WCI  30
MONROE         PTSUNNY   36  30  80 E9        29.96F WCI  29
PONTIAC        CLOUDY    36  28  73 SE14      29.96F WCI  27
PORT HOPE        N/A     34  25  69 SE6       30.01F WCI  29
PORT HURON     MOSUNNY   37  30  75 E9        30.00F WCI  31
TRI CITIES     SUNNY     39  27  62 E12       29.97F WCI  32
TROY           MOSUNNY   38  31  73 E7        30.00F WCI  33
SAGINAW HB     SUNNY     37  28  70 E8        29.96F WCI  31
$$
MIZ043>046-050>051-056>058-064>065-071>073-077>080-222000-
SOUTHWEST LOWER MICHIGAN

CITY           SKY/WX    TMP DP  RH WIND       PRES   REMARKS
BATTLE CREEK   CLOUDY    38  28  67 E9        29.89F WCI  31
BENTON HARBOR  MIX PCPN  34  30  85 E13       29.83F FOG     WCI  25
BIG RAPIDS     CLOUDY    34  29  80 SE14      29.91F WCI  25
COLDWATER      CLOUDY    37  29  73 SE9       29.88F WCI  30
FREMONT        CLOUDY    36  27  69 E9        29.88F WCI  29
HOLLAND        CLOUDY    37  28  70 E13       29.87F WCI  29
GRAND RAPIDS   CLOUDY    36  28  73 E13       29.90F WCI  27
IONIA          CLOUDY    37  29  72 E9        29.91F WCI  31
KALAMAZOO      CLOUDY    37  28  70 SE9       29.88F WCI  30
LUDINGTON      CLOUDY    38  29  70 SE9       29.88F WCI  31
MARSHALL       CLOUDY    36  28  73 E7        29.90F WCI  31
MOUNT PLEASANT CLOUDY    37  26  63 E9        29.94F WCI  30
MUSKEGON       CLOUDY    37  27  67 E12       29.87F WCI  29
SOUTH HAVEN    LGT RAIN  37  29  75 SE10      29.84F WCI  29
$$
MIZ016>042-222000-
NORTHERN LOWER MICHIGAN

CITY           SKY/WX    TMP DP  RH WIND       PRES   REMARKS
ALPENA         CLOUDY    34  27  75 SE13      30.02F WCI  25
BEAVER ISLAND  SUNNY     35  27  73 SE12      29.94F WCI  27
BELLAIRE       SUNNY     37  25  64 SE10      29.94F WCI  29
CADILLAC       MOSUNNY   31  24  75 E13       29.90F WCI  22
CHARLEVOIX     SUNNY     37  26  65 E12       29.96F WCI  29
FRANKFORT      MOSUNNY   38  26  64 SE8       29.89F WCI  32
GAYLORD        MOSUNNY   32  24  72 SE14      29.93F WCI  22
GRAYLING       SUNNY     33  25  71 E12       29.95F WCI  25
HARBOR SPRINGS SUNNY     35  25  66 E8        29.96F WCI  29
HOUGHTON LAKE  SUNNY     32  24  72 E13       29.94F WCI  22
MANISTEE       CLOUDY    37  23  56 SE10      29.89F WCI  30
OSCODA         CLOUDY    33  26  76 S8        30.02F WCI  26
PELLSTON       MOSUNNY   34  25  69 E14G20    29.97F WCI  25
ROGERS CITY    MOSUNNY   35  29  80 SE9       30.02F WCI  27
TRAVERSE CITY  PTSUNNY   38  25  59 SE9       29.91F WCI  31
$$
MIZ007>008-015-222000-
EASTERN UPPER MICHIGAN

CITY           SKY/WX    TMP DP  RH WIND       PRES   REMARKS
KINROSS        PTSUNNY   36  30  80 SE20      29.97F WCI  25
MACKINAC ISLAN PTSUNNY   34  26  73 SE8G16    29.97F WCI  27
NEWBERRY       PTSUNNY   32  27  80 SE10      29.94F WCI  24
S. S. MARIE    PTSUNNY   34  27  75 SE14      30.00F WCI  25
MUNISING         N/A     37  30  75 S12G18    29.88F WCI  29
$$
MIZ004>006-011>014-085-222000-
CENTRAL UPPER MICHIGAN

CITY           SKY/WX    TMP DP  RH WIND       PRES   REMARKS
MANISTIQUE     CLOUDY    34  31  88 SE12G17   29.93F WCI  26
ESCANABA       CLOUDY    36  28  75 SE9       29.88F WCI  29
MENOMINEE      PTSUNNY   36  30  80 S14       29.84F WCI  27
SAWYER-GWINN   CLOUDY    32  30  93 S16G22    29.84F FOG     WCI  21
$$
MIZ001>003-009>011-084-222000-
WESTERN UPPER MICHIGAN

CITY           SKY/WX    TMP DP  RH WIND       PRES   REMARKS
IRON MOUNTAIN  CLOUDY    34  32  92 SE7       29.81F FOG     WCI  28
HOUGHTON       CLOUDY    35  32  88 SE9       29.78F FOG     WCI  28
COPPER HARBOR    N/A     37  33  85 MISG      29.81F
IRONWOOD       CLOUDY    36  32  87 SE8       29.70S WCI  29
$$

ABBREVIATIONS USED IN REMARKS
   TC - TEMPERATURE IN CELSIUS
  WCI - WIND CHILL INDEX
   HX - HEAT INDEX
  VSB - VISIBILITY




USA.gov is the U.S. government's official web portal to all federal, state and local government web resources and services.